Location: Taupo
(38.6830°S, 176.0830°E)
Time: 22:46:59
(UTC+13:00)

ISS - Pass Details

Date: 01 February 2019
Orbit: 403 x 411 km, 51.6° (Epoch: 18 February)

Event Time Altitude Azimuth Distance (km) Brightness Sun altitude
Exits shadow 05:20:33 15° 267° (W) 1,222 -1.9 -12.1°
Maximum altitude 05:22:48 30° 210° (SSW) 773 -2.4 -11.8°
Drops below altitude 10° 05:25:49 10° 146° (SE) 1,497 0.2 -11.3°
Sets 05:28:05 0° 135° (SE) 2,363 1.9 -10.9°
